Location: Unspecified
(0.0000°N, 0.0000°E)
Time: 14:26:13
(UTC+00:00)

A-11 Canister half - Pass Details

Date: 29 May 2026
Orbit: 1524 x 1684 km, 47.3° (Epoch: 7 June)

Event Time Altitude Azimuth Distance (km) Brightness Sun altitude
Rises 21:03:33 0° 332° (NNW) 4,840 12.2 -42.4°
Reaches altitude 10° 21:06:47 10° 337° (NNW) 3,874 11.5 -43.1°
Enters shadow 21:13:04 39° 4° (N) 2,317 9.9 -44.4°
Maximum altitude 21:16:22 51° 51° (NE) 2,017 - -45.1°
Drops below altitude 10° 21:26:05 10° 124° (ESE) 3,946 - -47.2°
Sets 21:29:23 0° 128° (SE) 4,934 - -47.9°
